Holbrook, NY

8:44 AM EST on January 18, 2017 (GMT -0500)
Long Island Mac Arthur

Weather History for KISP - November, 2012

Change the Weather History Date:

Saturday, November 17, 2012

  Actual Average Record
Temperature  
Mean Temperature 42 °F 45 °F  
Max Temperature 52 °F 53 °F 66 °F (2006)
Min Temperature 31 °F 37 °F 24 °F (1996)
Degree Days  
Heating Degree Days 23 20  
Month to date heating degree days 360 304  
Since 1 July heating degree days 640 724  
Cooling Degree Days 0 0  
Month to date cooling degree days 0 0  
Year to date cooling degree days 993 787  
Moisture  
Dew Point 29 °F    
Average Humidity 63    
Maximum Humidity 85    
Minimum Humidity 41    
Precipitation  
Precipitation 0.00 in 0.12 in 1.59 in (2014)
Month to date precipitation 1.41 1.99  
Year to date precipitation 38.09 40.50  
Snow  
Snow 0.00 in 0.00 in - ()
Month to date snowfall 4.2 0.1  
Since 1 July snowfall 4.2 0.1  
Snow Depth 0.00 in    
Sea Level Pressure  
Sea Level Pressure 30.55 in    
Wind  
Wind Speed 6 mph (NNE)    
Max Wind Speed 17 mph    
Max Gust Speed 21 mph    
Visibility 9 miles    
Events      
T = Trace of Precipitation, MM = Missing Value Source: NWS Daily Summary

Daily Weather History Graph

Daily Weather History Graph

Search for Another Location

Airport or City:

Trip Planner

Search our weather history database for the weather conditions in past years. The results will help you decide how hot, cold, wet, or windy it might be!

Date:

Astronomy

Nov. 17, 2012 Rise Set
Actual Time 6:42 AM EST 4:32 PM EST
Civil Twilight 6:12 AM EST 5:01 PM EST
Nautical Twilight 5:39 AM EST 5:35 PM EST
Astronomical Twilight 5:06 AM EST 6:07 PM EST
Moon 10:24 AM EST (11/17) 8:39 PM EST (11/17)
Length of Visible Light 10h 49m
Length of Day
9h 50m
Waxing Crescent, 20% of the Moon is Illuminated
Nov 17
Waxing Crescent
Nov 20
First Quarter
Nov 28
Full
Dec 6
Last Quarter
Dec 13
New

Hourly Weather History & Observations

Time (EST) Temp. Windchill Dew Point Humidity Pressure Visibility Wind Dir Wind Speed Gust Speed Precip Events Conditions
12:56 AM 39.0 °F 34.0 °F 27.0 °F 62% 30.41 in 10.0 mi North 6.9 mph - N/A   Clear
1:56 AM 39.0 °F 33.4 °F 27.0 °F 62% 30.43 in 10.0 mi NNE 8.1 mph - N/A   Clear
2:56 AM 37.0 °F 33.3 °F 27.0 °F 67% 30.44 in 10.0 mi North 4.6 mph - N/A   Clear
3:56 AM 37.9 °F 32.7 °F 28.0 °F 68% 30.45 in 10.0 mi North 6.9 mph - N/A   Clear
4:56 AM 37.9 °F 33.5 °F 28.0 °F 68% 30.48 in 10.0 mi North 5.8 mph - N/A   Clear
5:56 AM 37.9 °F 30.9 °F 30.0 °F 73% 30.50 in 10.0 mi North 10.4 mph - N/A   Clear
6:56 AM 39.0 °F 32.8 °F 30.9 °F 73% 30.52 in 10.0 mi North 9.2 mph - N/A   Clear
7:56 AM 42.1 °F 36.1 °F 33.1 °F 70% 30.55 in 10.0 mi North 10.4 mph - N/A   Partly Cloudy
8:56 AM 45.0 °F 38.9 °F 32.0 °F 60% 30.57 in 10.0 mi NNE 12.7 mph 20.7 mph N/A   Partly Cloudy
9:56 AM 46.9 °F - 32.0 °F 56% 30.58 in 10.0 mi NNE 15.0 mph - N/A   Partly Cloudy
10:56 AM 48.0 °F - 30.9 °F 52% 30.59 in 10.0 mi NE 12.7 mph - N/A   Partly Cloudy
12:56 PM 50.0 °F - 30.0 °F 46% 30.57 in 10.0 mi NNE 9.2 mph - N/A   Clear
1:56 PM 51.1 °F - 28.9 °F 43% 30.56 in 10.0 mi NNE 10.4 mph - N/A   Clear
2:56 PM 51.1 °F - 28.9 °F 43% 30.56 in 10.0 mi North 6.9 mph - N/A   Clear
3:56 PM 48.9 °F - 30.0 °F 48% 30.57 in 10.0 mi ENE 4.6 mph - N/A   Clear
4:56 PM 42.1 °F 40.2 °F 28.9 °F 60% 30.58 in 10.0 mi ENE 3.5 mph - N/A   Clear
5:56 PM 39.0 °F - 28.9 °F 67% 30.59 in 10.0 mi Calm Calm - N/A   Clear
6:56 PM 37.0 °F - 28.9 °F 73% 30.60 in 10.0 mi Calm Calm - N/A   Clear
7:56 PM 36.0 °F - 28.9 °F 76% 30.60 in 10.0 mi Calm Calm - N/A   Clear
8:56 PM 35.1 °F - 28.9 °F 78% 30.61 in 8.0 mi Calm Calm - N/A   Clear
9:56 PM 33.1 °F - 27.0 °F 78% 30.61 in 7.0 mi Calm Calm - N/A   Clear
10:56 PM 30.9 °F - 27.0 °F 85% 30.62 in 6.0 mi Calm Calm - N/A   Clear
11:56 PM 33.1 °F - 28.0 °F 82% 30.62 in 6.0 mi Calm Calm - N/A   Haze